Year,Month,Day,Hour,Minute,Value (Times are PST for temperature in C)
2016,11,08,00,00,11.20
2016,11,08,00,01,11.20
2016,11,08,00,02,11.20
2016,11,08,00,03,11.20
2016,11,08,00,04,11.20
2016,11,08,00,05,11.20
2016,11,08,00,06,11.20
2016,11,08,00,07,11.20
2016,11,08,00,08,11.30
2016,11,08,00,09,11.30
2016,11,08,00,10,11.30
2016,11,08,00,11,11.30
2016,11,08,00,12,11.30
2016,11,08,00,13,11.30
2016,11,08,00,14,11.30
2016,11,08,00,15,11.30
2016,11,08,00,16,11.30
2016,11,08,00,17,11.30
2016,11,08,00,18,11.30
2016,11,08,00,19,11.30
2016,11,08,00,20,11.30
2016,11,08,00,21,11.30
2016,11,08,00,22,11.30
2016,11,08,00,23,11.30
2016,11,08,00,24,11.20
2016,11,08,00,25,11.20
2016,11,08,00,26,11.20
2016,11,08,00,27,11.20
2016,11,08,00,28,11.20
2016,11,08,00,29,11.20
2016,11,08,00,30,11.20
2016,11,08,00,31,11.20
2016,11,08,00,32,11.20
2016,11,08,00,33,11.20
2016,11,08,00,34,11.20
2016,11,08,00,35,11.20
2016,11,08,00,36,11.20
2016,11,08,00,37,11.30
2016,11,08,00,38,11.30
2016,11,08,00,39,11.30
2016,11,08,00,40,11.30
2016,11,08,00,41,11.30
2016,11,08,00,42,11.30
2016,11,08,00,43,11.30
2016,11,08,00,44,11.30
2016,11,08,00,45,11.30
2016,11,08,00,46,11.30
2016,11,08,00,47,11.30
2016,11,08,00,48,11.30
2016,11,08,00,49,11.40
2016,11,08,00,50,11.40
2016,11,08,00,51,11.40
2016,11,08,00,52,11.40
2016,11,08,00,53,11.40
2016,11,08,00,54,11.40
2016,11,08,00,55,11.40
2016,11,08,00,56,11.40
2016,11,08,00,57,11.40
2016,11,08,00,58,11.40
2016,11,08,00,59,11.40
2016,11,08,01,00,11.40
2016,11,08,01,01,11.40
2016,11,08,01,02,11.40
2016,11,08,01,03,11.50
2016,11,08,01,04,11.40
2016,11,08,01,05,11.50
2016,11,08,01,06,11.50
2016,11,08,01,07,11.50
2016,11,08,01,08,11.50
2016,11,08,01,09,11.50
2016,11,08,01,10,11.50
2016,11,08,01,11,11.50
2016,11,08,01,12,11.50
2016,11,08,01,13,11.50
2016,11,08,01,14,11.50
2016,11,08,01,15,11.50
2016,11,08,01,16,11.50
2016,11,08,01,17,11.50
2016,11,08,01,18,11.50
2016,11,08,01,19,11.50
2016,11,08,01,20,11.50
2016,11,08,01,21,11.50
2016,11,08,01,22,11.50
2016,11,08,01,23,11.50
2016,11,08,01,24,11.50
2016,11,08,01,25,11.50
2016,11,08,01,26,11.50
2016,11,08,01,27,11.50
2016,11,08,01,28,11.50
2016,11,08,01,29,11.50
2016,11,08,01,30,11.40
2016,11,08,01,31,11.40
2016,11,08,01,32,11.40
2016,11,08,01,33,11.40
2016,11,08,01,34,11.40
2016,11,08,01,35,11.40
2016,11,08,01,36,11.40
2016,11,08,01,37,11.40
2016,11,08,01,38,11.30
2016,11,08,01,39,11.30
2016,11,08,01,40,11.30
2016,11,08,01,41,11.30
2016,11,08,01,42,11.30
2016,11,08,01,43,11.30
2016,11,08,01,44,11.30
2016,11,08,01,45,11.30
2016,11,08,01,46,11.30
2016,11,08,01,47,11.30
2016,11,08,01,48,11.30
2016,11,08,01,49,11.30
2016,11,08,01,50,11.30
2016,11,08,01,51,11.30
2016,11,08,01,52,11.30
2016,11,08,01,53,11.30
2016,11,08,01,54,11.30
2016,11,08,01,55,11.30
2016,11,08,01,56,11.30
2016,11,08,01,57,11.30
2016,11,08,01,58,11.30
2016,11,08,01,59,11.30
2016,11,08,02,00,11.30
2016,11,08,02,01,11.20
2016,11,08,02,02,11.20
2016,11,08,02,03,11.20
2016,11,08,02,04,11.20
2016,11,08,02,05,11.20
2016,11,08,02,06,11.20
2016,11,08,02,07,11.20
2016,11,08,02,08,11.20
2016,11,08,02,09,11.20
2016,11,08,02,10,11.20
2016,11,08,02,11,11.20
2016,11,08,02,12,11.10
2016,11,08,02,13,11.10
2016,11,08,02,14,11.10
2016,11,08,02,15,11.10
2016,11,08,02,16,11.10
2016,11,08,02,17,11.00
2016,11,08,02,18,11.00
2016,11,08,02,19,11.00
2016,11,08,02,20,11.00
2016,11,08,02,21,11.00
2016,11,08,02,22,11.00
2016,11,08,02,23,11.00
2016,11,08,02,24,11.00
2016,11,08,02,25,11.00
2016,11,08,02,26,11.00
2016,11,08,02,27,11.00
2016,11,08,02,28,11.00
2016,11,08,02,29,11.00
2016,11,08,02,30,11.00
2016,11,08,02,31,11.00
2016,11,08,02,32,11.00
2016,11,08,02,33,11.00
2016,11,08,02,34,11.00
2016,11,08,02,35,11.00
2016,11,08,02,36,11.00
2016,11,08,02,37,11.00
2016,11,08,02,38,11.00
2016,11,08,02,39,10.90
2016,11,08,02,40,10.90
2016,11,08,02,41,10.90
2016,11,08,02,42,10.90
2016,11,08,02,43,10.90
2016,11,08,02,44,10.90
2016,11,08,02,45,10.90
2016,11,08,02,46,10.90
2016,11,08,02,47,10.90
2016,11,08,02,48,10.90
2016,11,08,02,49,10.90
2016,11,08,02,50,10.90
2016,11,08,02,51,10.90
2016,11,08,02,52,10.90
2016,11,08,02,53,10.90
2016,11,08,02,54,10.90
2016,11,08,02,55,10.90
2016,11,08,02,56,10.90
2016,11,08,02,57,10.90
2016,11,08,02,58,10.90
2016,11,08,02,59,10.90
2016,11,08,03,00,10.90
2016,11,08,03,01,10.90
2016,11,08,03,02,10.90
2016,11,08,03,03,10.90
2016,11,08,03,04,10.90
2016,11,08,03,05,10.90
2016,11,08,03,06,10.90
2016,11,08,03,07,10.90
2016,11,08,03,08,10.90
2016,11,08,03,09,10.90
2016,11,08,03,10,10.90
2016,11,08,03,11,10.90
2016,11,08,03,12,10.90
2016,11,08,03,13,10.90
2016,11,08,03,14,10.90
2016,11,08,03,15,10.90
2016,11,08,03,16,10.90
2016,11,08,03,17,10.90
2016,11,08,03,18,10.80
2016,11,08,03,19,10.80
2016,11,08,03,20,10.80
2016,11,08,03,21,10.80
2016,11,08,03,22,10.80
2016,11,08,03,23,10.80
2016,11,08,03,24,10.80
2016,11,08,03,25,10.80
2016,11,08,03,26,10.80
2016,11,08,03,27,10.70
2016,11,08,03,28,10.70
2016,11,08,03,29,10.70
2016,11,08,03,30,10.70
2016,11,08,03,31,10.70
2016,11,08,03,32,10.70
2016,11,08,03,33,10.70
2016,11,08,03,34,10.70
2016,11,08,03,35,10.70
2016,11,08,03,36,10.70
2016,11,08,03,37,10.70
2016,11,08,03,38,10.70
2016,11,08,03,39,10.70
2016,11,08,03,40,10.70
2016,11,08,03,41,10.70
2016,11,08,03,42,10.70
2016,11,08,03,43,10.70
2016,11,08,03,44,10.70
2016,11,08,03,45,10.70
2016,11,08,03,46,10.70
2016,11,08,03,47,10.70
2016,11,08,03,48,10.70
2016,11,08,03,49,10.70
2016,11,08,03,50,10.70
2016,11,08,03,51,10.70
2016,11,08,03,52,10.70
2016,11,08,03,53,10.70
2016,11,08,03,54,10.70
2016,11,08,03,55,10.70
2016,11,08,03,56,10.70
2016,11,08,03,57,10.70
2016,11,08,03,58,10.70
2016,11,08,03,59,10.70
2016,11,08,04,00,10.70
2016,11,08,04,01,10.60
2016,11,08,04,02,10.60
2016,11,08,04,03,10.60
2016,11,08,04,04,10.60
2016,11,08,04,05,10.60
2016,11,08,04,06,10.60
2016,11,08,04,07,10.60
2016,11,08,04,08,10.60
2016,11,08,04,09,10.60
2016,11,08,04,10,10.60
2016,11,08,04,11,10.60
2016,11,08,04,12,10.60
2016,11,08,04,13,10.60
2016,11,08,04,14,10.60
2016,11,08,04,15,10.60
2016,11,08,04,16,10.60
2016,11,08,04,17,10.60
2016,11,08,04,18,10.60
2016,11,08,04,19,10.50
2016,11,08,04,20,10.50
2016,11,08,04,21,10.50
2016,11,08,04,22,10.50
2016,11,08,04,23,10.50
2016,11,08,04,24,10.50
2016,11,08,04,25,10.50
2016,11,08,04,26,10.50
2016,11,08,04,27,10.50
2016,11,08,04,28,10.50
2016,11,08,04,29,10.50
2016,11,08,04,30,10.50
2016,11,08,04,31,10.50
2016,11,08,04,32,10.50
2016,11,08,04,33,10.50
2016,11,08,04,34,10.60
2016,11,08,04,35,10.60
2016,11,08,04,36,10.60
2016,11,08,04,37,10.60
2016,11,08,04,38,10.60
2016,11,08,04,39,10.60
2016,11,08,04,40,10.60
2016,11,08,04,41,10.60
2016,11,08,04,42,10.70
2016,11,08,04,43,10.70
2016,11,08,04,44,10.70
2016,11,08,04,45,10.70
2016,11,08,04,46,10.70
2016,11,08,04,47,10.70
2016,11,08,04,48,10.70
2016,11,08,04,49,10.70
2016,11,08,04,50,10.70
2016,11,08,04,51,10.70
2016,11,08,04,52,10.70
2016,11,08,04,53,10.70
2016,11,08,04,54,10.70
2016,11,08,04,55,10.70
2016,11,08,04,56,10.60
2016,11,08,04,57,10.60
2016,11,08,04,58,10.60
2016,11,08,04,59,10.60
2016,11,08,05,00,10.60
2016,11,08,05,01,10.50
2016,11,08,05,02,10.50
2016,11,08,05,03,10.50
2016,11,08,05,04,10.50
2016,11,08,05,05,10.50
2016,11,08,05,06,10.50
2016,11,08,05,07,10.50
2016,11,08,05,08,10.50
2016,11,08,05,09,10.50
2016,11,08,05,10,10.50
2016,11,08,05,11,10.50
2016,11,08,05,12,10.40
2016,11,08,05,13,10.40
2016,11,08,05,14,10.40
2016,11,08,05,15,10.40
2016,11,08,05,16,10.40
2016,11,08,05,17,10.40
2016,11,08,05,18,10.40
2016,11,08,05,19,10.40
2016,11,08,05,20,10.30
2016,11,08,05,21,10.30
2016,11,08,05,22,10.30
2016,11,08,05,23,10.30
2016,11,08,05,24,10.30
2016,11,08,05,25,10.30
2016,11,08,05,26,10.30
2016,11,08,05,27,10.30
2016,11,08,05,28,10.30
2016,11,08,05,29,10.20
2016,11,08,05,30,10.20
2016,11,08,05,31,10.20
2016,11,08,05,32,10.20
2016,11,08,05,33,10.20
2016,11,08,05,34,10.20
2016,11,08,05,35,10.20
2016,11,08,05,36,10.20
2016,11,08,05,37,10.20
2016,11,08,05,38,10.20
2016,11,08,05,39,10.20
2016,11,08,05,40,10.10
2016,11,08,05,41,10.10
2016,11,08,05,42,10.10
2016,11,08,05,43,10.10
2016,11,08,05,44,10.10
2016,11,08,05,45,10.10
2016,11,08,05,46,10.10
2016,11,08,05,47,10.00
2016,11,08,05,48,10.00
2016,11,08,05,49,10.00
2016,11,08,05,50,10.00
2016,11,08,05,51,10.00
2016,11,08,05,52,10.00
2016,11,08,05,53,10.10
2016,11,08,05,54,10.10
2016,11,08,05,55,10.10
2016,11,08,05,56,10.10
2016,11,08,05,57,10.10
2016,11,08,05,58,10.10
2016,11,08,05,59,10.10
2016,11,08,06,00,10.10
2016,11,08,06,01,10.10
2016,11,08,06,02,10.00
2016,11,08,06,03,10.00
2016,11,08,06,04,10.00
2016,11,08,06,05,10.00
2016,11,08,06,06,10.00
2016,11,08,06,07,10.00
2016,11,08,06,08,10.00
2016,11,08,06,09,10.00
2016,11,08,06,10,10.00
2016,11,08,06,11,10.00
2016,11,08,06,12,10.00
2016,11,08,06,13,10.00
2016,11,08,06,14,10.00
2016,11,08,06,15,10.00
2016,11,08,06,16,9.90
2016,11,08,06,17,9.90
2016,11,08,06,18,9.90
2016,11,08,06,19,9.90
2016,11,08,06,20,9.90
2016,11,08,06,21,9.90
2016,11,08,06,22,9.90
2016,11,08,06,23,9.90
2016,11,08,06,24,10.00
2016,11,08,06,25,10.00
2016,11,08,06,26,10.00
2016,11,08,06,27,10.00
2016,11,08,06,28,10.00
2016,11,08,06,29,10.10
2016,11,08,06,30,10.10
2016,11,08,06,31,10.10
2016,11,08,06,32,10.10
2016,11,08,06,33,10.10
2016,11,08,06,34,10.10
2016,11,08,06,35,10.20
2016,11,08,06,36,10.20
2016,11,08,06,37,10.20
2016,11,08,06,38,10.20
2016,11,08,06,39,10.20
2016,11,08,06,40,10.20
2016,11,08,06,41,10.20
2016,11,08,06,42,10.10
2016,11,08,06,43,10.10
2016,11,08,06,44,10.20
2016,11,08,06,45,10.20
2016,11,08,06,46,10.20
2016,11,08,06,47,10.20
2016,11,08,06,48,10.20
2016,11,08,06,49,10.20
2016,11,08,06,50,10.20
2016,11,08,06,51,10.20
2016,11,08,06,52,10.20
2016,11,08,06,53,10.20
2016,11,08,06,54,10.20
2016,11,08,06,55,10.20
2016,11,08,06,56,10.20
2016,11,08,06,57,10.20
2016,11,08,06,58,10.20
2016,11,08,06,59,10.20
2016,11,08,07,00,10.20
2016,11,08,07,01,10.20
2016,11,08,07,02,10.20
2016,11,08,07,03,10.20
2016,11,08,07,04,10.20
2016,11,08,07,05,10.20
2016,11,08,07,06,10.20
2016,11,08,07,07,10.20
2016,11,08,07,08,10.20
2016,11,08,07,09,10.20
2016,11,08,07,10,10.20
2016,11,08,07,11,10.20
2016,11,08,07,12,10.20
2016,11,08,07,13,10.20
2016,11,08,07,14,10.30
2016,11,08,07,15,10.30
2016,11,08,07,16,10.30
2016,11,08,07,17,10.30
2016,11,08,07,18,10.30
2016,11,08,07,19,10.30
2016,11,08,07,20,10.30
2016,11,08,07,21,10.40
2016,11,08,07,22,10.40
2016,11,08,07,23,10.40
2016,11,08,07,24,10.40
2016,11,08,07,25,10.40
2016,11,08,07,26,10.40
2016,11,08,07,27,10.40
2016,11,08,07,28,10.50
2016,11,08,07,29,10.50
2016,11,08,07,30,10.60
2016,11,08,07,31,10.60
2016,11,08,07,32,10.60
2016,11,08,07,33,10.60
2016,11,08,07,34,10.60
2016,11,08,07,35,10.70
2016,11,08,07,36,10.70
2016,11,08,07,37,10.80
2016,11,08,07,38,10.80
2016,11,08,07,39,10.80
2016,11,08,07,40,10.80
2016,11,08,07,41,10.90
2016,11,08,07,42,10.90
2016,11,08,07,43,11.00
2016,11,08,07,44,11.00
2016,11,08,07,45,11.10
2016,11,08,07,46,11.10
2016,11,08,07,47,11.10
2016,11,08,07,48,11.20
2016,11,08,07,49,11.20
2016,11,08,07,50,11.20
2016,11,08,07,51,11.30
2016,11,08,07,52,11.30
2016,11,08,07,53,11.30
2016,11,08,07,54,11.30
2016,11,08,07,55,11.40
2016,11,08,07,56,11.40
2016,11,08,07,57,11.40
2016,11,08,07,58,11.40
2016,11,08,07,59,11.50
2016,11,08,08,00,11.50
2016,11,08,08,01,11.50
2016,11,08,08,02,11.50
2016,11,08,08,03,11.50
2016,11,08,08,04,11.60
2016,11,08,08,05,11.60
2016,11,08,08,06,11.60
2016,11,08,08,07,11.60
2016,11,08,08,08,11.60
2016,11,08,08,09,11.70
2016,11,08,08,10,11.70
2016,11,08,08,11,11.80
2016,11,08,08,12,11.80
2016,11,08,08,13,11.80
2016,11,08,08,14,11.90
2016,11,08,08,15,11.90
2016,11,08,08,16,11.90
2016,11,08,08,17,12.00
2016,11,08,08,18,12.00
2016,11,08,08,19,12.10
2016,11,08,08,20,12.10
2016,11,08,08,21,12.10
2016,11,08,08,22,12.20
2016,11,08,08,23,12.20
2016,11,08,08,24,12.20
2016,11,08,08,25,12.30
2016,11,08,08,26,12.30
2016,11,08,08,27,12.40
2016,11,08,08,28,12.40
2016,11,08,08,29,12.50
2016,11,08,08,30,12.50
2016,11,08,08,31,12.60
2016,11,08,08,32,12.70
2016,11,08,08,33,12.70
2016,11,08,08,34,12.80
2016,11,08,08,35,12.80
2016,11,08,08,36,12.90
2016,11,08,08,37,12.90
2016,11,08,08,38,13.00
2016,11,08,08,39,13.10
2016,11,08,08,40,13.10
2016,11,08,08,41,13.20
2016,11,08,08,42,13.20
2016,11,08,08,43,13.30
2016,11,08,08,44,13.30
2016,11,08,08,45,13.40
2016,11,08,08,46,13.40
2016,11,08,08,47,13.40
2016,11,08,08,48,13.40
2016,11,08,08,49,13.50
2016,11,08,08,50,13.50
2016,11,08,08,51,13.60
2016,11,08,08,52,13.60
2016,11,08,08,53,13.70
2016,11,08,08,54,13.70
2016,11,08,08,55,13.80
2016,11,08,08,56,13.80
2016,11,08,08,57,13.90
2016,11,08,08,58,14.00
2016,11,08,08,59,14.00
2016,11,08,09,00,14.10
2016,11,08,09,01,14.10
2016,11,08,09,02,14.20
2016,11,08,09,03,14.30
2016,11,08,09,04,14.30
2016,11,08,09,05,14.40
2016,11,08,09,06,14.40
2016,11,08,09,07,14.50
2016,11,08,09,08,14.60
2016,11,08,09,09,14.60
2016,11,08,09,10,14.60
2016,11,08,09,11,14.70
2016,11,08,09,12,14.70
2016,11,08,09,13,14.70
2016,11,08,09,14,14.80
2016,11,08,09,15,14.80
2016,11,08,09,16,14.80
2016,11,08,09,17,14.80
2016,11,08,09,18,14.80
2016,11,08,09,19,14.80
2016,11,08,09,20,14.80
2016,11,08,09,21,14.80
2016,11,08,09,22,14.80
2016,11,08,09,23,14.80
2016,11,08,09,24,14.80
2016,11,08,09,25,14.80
2016,11,08,09,26,14.80
2016,11,08,09,27,14.80
2016,11,08,09,28,14.90
2016,11,08,09,29,14.90
2016,11,08,09,30,14.90
2016,11,08,09,31,14.90
2016,11,08,09,32,14.90
2016,11,08,09,33,14.90
2016,11,08,09,34,14.90
2016,11,08,09,35,15.00
2016,11,08,09,36,15.00
2016,11,08,09,37,15.00
2016,11,08,09,38,15.00
2016,11,08,09,39,15.00
2016,11,08,09,40,15.00
2016,11,08,09,41,15.00
2016,11,08,09,42,15.00
2016,11,08,09,43,15.00
2016,11,08,09,44,15.10
2016,11,08,09,45,15.20
2016,11,08,09,46,15.20
2016,11,08,09,47,15.30
2016,11,08,09,48,15.30
2016,11,08,09,49,15.30
2016,11,08,09,50,15.30
2016,11,08,09,51,15.40
2016,11,08,09,52,15.40
2016,11,08,09,53,15.50
2016,11,08,09,54,15.60
2016,11,08,09,55,15.60
2016,11,08,09,56,15.70
2016,11,08,09,57,15.70
2016,11,08,09,58,15.80
2016,11,08,09,59,15.90
2016,11,08,10,00,16.00
2016,11,08,10,01,16.00
2016,11,08,10,02,16.10
2016,11,08,10,03,16.20
2016,11,08,10,04,16.30
2016,11,08,10,05,16.40
2016,11,08,10,06,16.50
2016,11,08,10,07,16.50
2016,11,08,10,08,16.70
2016,11,08,10,09,16.80
2016,11,08,10,10,16.90
2016,11,08,10,11,17.00
2016,11,08,10,12,17.10
2016,11,08,10,13,17.10
2016,11,08,10,14,17.20
2016,11,08,10,15,17.20
2016,11,08,10,16,17.30
2016,11,08,10,17,17.30
2016,11,08,10,18,17.30
2016,11,08,10,19,17.40
2016,11,08,10,20,17.40
2016,11,08,10,21,17.40
2016,11,08,10,22,17.40
2016,11,08,10,23,17.50
2016,11,08,10,24,17.50
2016,11,08,10,25,17.50
2016,11,08,10,26,17.50
2016,11,08,10,27,17.50
2016,11,08,10,28,17.50
2016,11,08,10,29,17.50
2016,11,08,10,30,17.40
2016,11,08,10,31,17.40
2016,11,08,10,32,17.40
2016,11,08,10,33,17.40
2016,11,08,10,34,17.40
2016,11,08,10,35,17.40
2016,11,08,10,36,17.40
2016,11,08,10,37,17.40
2016,11,08,10,38,17.40
2016,11,08,10,39,17.40
2016,11,08,10,40,17.40
2016,11,08,10,41,17.40
2016,11,08,10,42,17.40
2016,11,08,10,43,17.30
2016,11,08,10,44,17.30
2016,11,08,10,45,17.30
2016,11,08,10,46,17.30
2016,11,08,10,47,17.30
2016,11,08,10,48,17.30
2016,11,08,10,49,17.30
2016,11,08,10,50,17.20
2016,11,08,10,51,17.20
2016,11,08,10,52,17.20
2016,11,08,10,53,17.20
2016,11,08,10,54,17.20
2016,11,08,10,55,17.10
2016,11,08,10,56,17.10
2016,11,08,10,57,17.10
2016,11,08,10,58,17.10
2016,11,08,10,59,17.10
2016,11,08,11,00,17.20
2016,11,08,11,01,17.20
2016,11,08,11,02,17.20
2016,11,08,11,03,17.20
2016,11,08,11,04,17.20
2016,11,08,11,05,17.30
2016,11,08,11,06,17.30
2016,11,08,11,07,17.40
2016,11,08,11,08,17.40
2016,11,08,11,09,17.40
2016,11,08,11,10,17.40
2016,11,08,11,11,17.50
2016,11,08,11,12,17.50
2016,11,08,11,13,17.60
2016,11,08,11,14,17.60
2016,11,08,11,15,17.70
2016,11,08,11,16,17.70
2016,11,08,11,17,17.70
2016,11,08,11,18,17.70
2016,11,08,11,19,17.70
2016,11,08,11,20,17.70
2016,11,08,11,21,17.70
2016,11,08,11,22,17.70
2016,11,08,11,23,17.60
2016,11,08,11,24,17.60
2016,11,08,11,25,17.60
2016,11,08,11,26,17.60
2016,11,08,11,27,17.60
2016,11,08,11,28,17.60
2016,11,08,11,29,17.60
2016,11,08,11,30,17.60
2016,11,08,11,31,17.60
2016,11,08,11,32,17.70
2016,11,08,11,33,17.70
2016,11,08,11,34,17.80
2016,11,08,11,35,17.80
2016,11,08,11,36,17.90
2016,11,08,11,37,17.90
2016,11,08,11,38,17.90
2016,11,08,11,39,18.00
2016,11,08,11,40,18.10
2016,11,08,11,41,18.10
2016,11,08,11,42,18.10
2016,11,08,11,43,18.10
2016,11,08,11,44,18.10
2016,11,08,11,45,18.10
2016,11,08,11,46,18.10
2016,11,08,11,47,18.10
2016,11,08,11,48,18.10
2016,11,08,11,49,18.20
2016,11,08,11,50,18.20
2016,11,08,11,51,18.20
2016,11,08,11,52,18.20
2016,11,08,11,53,18.20
2016,11,08,11,54,18.20
2016,11,08,11,55,18.20
2016,11,08,11,56,18.30
2016,11,08,11,57,18.30
2016,11,08,11,58,18.30
2016,11,08,11,59,18.30
2016,11,08,12,00,18.30
2016,11,08,12,01,18.30
2016,11,08,12,02,18.30
2016,11,08,12,03,18.30
2016,11,08,12,04,18.20
2016,11,08,12,05,18.20
2016,11,08,12,06,18.10
2016,11,08,12,07,18.10
2016,11,08,12,08,18.10
2016,11,08,12,09,18.10
2016,11,08,12,10,18.10
2016,11,08,12,11,18.10
2016,11,08,12,12,18.10
2016,11,08,12,13,18.10
2016,11,08,12,14,18.10
2016,11,08,12,15,18.10
2016,11,08,12,16,18.10
2016,11,08,12,17,18.10
2016,11,08,12,18,18.10
2016,11,08,12,19,18.10
2016,11,08,12,20,18.00
2016,11,08,12,21,18.00
2016,11,08,12,22,18.00
2016,11,08,12,23,18.00
2016,11,08,12,24,18.10
2016,11,08,12,25,18.10
2016,11,08,12,26,18.10
2016,11,08,12,27,18.10
2016,11,08,12,28,18.20
2016,11,08,12,29,18.20
2016,11,08,12,30,18.20
2016,11,08,12,31,18.20
2016,11,08,12,32,18.20
2016,11,08,12,33,18.20
2016,11,08,12,34,18.10
2016,11,08,12,35,18.10
2016,11,08,12,36,18.00
2016,11,08,12,37,18.00
2016,11,08,12,38,17.90
2016,11,08,12,39,17.90
2016,11,08,12,40,17.90
2016,11,08,12,41,17.90
2016,11,08,12,42,17.90
2016,11,08,12,43,17.90
2016,11,08,12,44,17.90
2016,11,08,12,45,17.90
2016,11,08,12,46,17.90
2016,11,08,12,47,17.90
2016,11,08,12,48,17.90
2016,11,08,12,49,18.00
2016,11,08,12,50,18.00
2016,11,08,12,51,18.00
2016,11,08,12,52,18.10
2016,11,08,12,53,18.10
2016,11,08,12,54,18.10
2016,11,08,12,55,18.10
2016,11,08,12,56,18.10
2016,11,08,12,57,18.10
2016,11,08,12,58,18.10
2016,11,08,12,59,18.20
2016,11,08,13,00,18.20
2016,11,08,13,01,18.30
2016,11,08,13,02,18.30
2016,11,08,13,03,18.30
2016,11,08,13,04,18.30
2016,11,08,13,05,18.40
2016,11,08,13,06,18.40
2016,11,08,13,07,18.40
2016,11,08,13,08,18.40
2016,11,08,13,09,18.40
2016,11,08,13,10,18.40
2016,11,08,13,11,18.50
2016,11,08,13,12,18.50
2016,11,08,13,13,18.50
2016,11,08,13,14,18.50
2016,11,08,13,15,18.40
2016,11,08,13,16,18.40
2016,11,08,13,17,18.40
2016,11,08,13,18,18.30
2016,11,08,13,19,18.20
2016,11,08,13,20,18.10
2016,11,08,13,21,18.10
2016,11,08,13,22,18.00
2016,11,08,13,23,17.90
2016,11,08,13,24,17.90
2016,11,08,13,25,17.90
2016,11,08,13,26,17.90
2016,11,08,13,27,17.90
2016,11,08,13,28,17.90
2016,11,08,13,29,17.90
2016,11,08,13,30,17.90
2016,11,08,13,31,17.90
2016,11,08,13,32,17.90
2016,11,08,13,33,17.90
2016,11,08,13,34,17.90
2016,11,08,13,35,17.90
2016,11,08,13,36,17.90
2016,11,08,13,37,17.90
2016,11,08,13,38,17.90
2016,11,08,13,39,17.90
2016,11,08,13,40,17.90
2016,11,08,13,41,17.90
2016,11,08,13,42,17.90
2016,11,08,13,43,17.90
2016,11,08,13,44,17.90
2016,11,08,13,45,17.90
2016,11,08,13,46,17.90
2016,11,08,13,47,17.90
2016,11,08,13,48,17.90
2016,11,08,13,49,17.80
2016,11,08,13,50,17.80
2016,11,08,13,51,17.80
2016,11,08,13,52,17.80
2016,11,08,13,53,17.80
2016,11,08,13,54,17.80
2016,11,08,13,55,17.80
2016,11,08,13,56,17.80
2016,11,08,13,57,17.80
2016,11,08,13,58,17.80
2016,11,08,13,59,17.80
2016,11,08,14,00,17.70
2016,11,08,14,01,17.70
2016,11,08,14,02,17.70
2016,11,08,14,03,17.70
2016,11,08,14,04,17.70
2016,11,08,14,05,17.80
2016,11,08,14,06,17.80
2016,11,08,14,07,17.80
2016,11,08,14,08,17.80
2016,11,08,14,09,17.80
2016,11,08,14,10,17.80
2016,11,08,14,11,17.80
2016,11,08,14,12,17.80
2016,11,08,14,13,17.80
2016,11,08,14,14,17.90
2016,11,08,14,15,17.90
2016,11,08,14,16,17.90
2016,11,08,14,17,18.00
2016,11,08,14,18,18.00
2016,11,08,14,19,18.00
2016,11,08,14,20,18.10
2016,11,08,14,21,18.10
2016,11,08,14,22,18.10
2016,11,08,14,23,18.10
2016,11,08,14,24,18.00
2016,11,08,14,25,18.00
2016,11,08,14,26,18.00
2016,11,08,14,27,17.90
2016,11,08,14,28,17.90
2016,11,08,14,29,17.90
2016,11,08,14,30,17.90
2016,11,08,14,31,17.90
2016,11,08,14,32,17.90
2016,11,08,14,33,17.80
2016,11,08,14,34,17.80
2016,11,08,14,35,17.80
2016,11,08,14,36,17.80
2016,11,08,14,37,17.80
2016,11,08,14,38,17.80
2016,11,08,14,39,17.80
2016,11,08,14,40,17.80
2016,11,08,14,41,17.80
2016,11,08,14,42,17.80
2016,11,08,14,43,17.80
2016,11,08,14,44,17.80
2016,11,08,14,45,17.80
2016,11,08,14,46,17.80
2016,11,08,14,47,17.80
2016,11,08,14,48,17.80
2016,11,08,14,49,17.80
2016,11,08,14,50,17.80
2016,11,08,14,51,17.80
2016,11,08,14,52,17.80
2016,11,08,14,53,17.80
2016,11,08,14,54,17.80
2016,11,08,14,55,17.80
2016,11,08,14,56,17.80
2016,11,08,14,57,17.80
2016,11,08,14,58,17.80
2016,11,08,14,59,17.80
2016,11,08,15,00,17.90
2016,11,08,15,01,17.90
2016,11,08,15,02,17.90
2016,11,08,15,03,17.80
2016,11,08,15,04,17.80
2016,11,08,15,05,17.80
2016,11,08,15,06,17.80
2016,11,08,15,07,17.80
2016,11,08,15,08,17.80
2016,11,08,15,09,17.80
2016,11,08,15,10,17.80
2016,11,08,15,11,17.80
2016,11,08,15,12,17.80
2016,11,08,15,13,17.80
2016,11,08,15,14,17.80
2016,11,08,15,15,17.80
2016,11,08,15,16,17.80
2016,11,08,15,17,17.80
2016,11,08,15,18,17.80
2016,11,08,15,19,17.80
2016,11,08,15,20,17.80
2016,11,08,15,21,17.80
2016,11,08,15,22,17.80
2016,11,08,15,23,17.80
2016,11,08,15,24,17.70
2016,11,08,15,25,17.80
2016,11,08,15,26,17.80
2016,11,08,15,27,17.80
2016,11,08,15,28,17.80
2016,11,08,15,29,17.80
2016,11,08,15,30,17.80
2016,11,08,15,31,17.80
2016,11,08,15,32,17.80
2016,11,08,15,33,17.80
2016,11,08,15,34,17.80
2016,11,08,15,35,17.80
2016,11,08,15,36,17.70
2016,11,08,15,37,17.70
2016,11,08,15,38,17.70
2016,11,08,15,39,17.70
2016,11,08,15,40,17.70
2016,11,08,15,41,17.60
2016,11,08,15,42,17.60
2016,11,08,15,43,17.60
2016,11,08,15,44,17.60
2016,11,08,15,45,17.60
2016,11,08,15,46,17.50
2016,11,08,15,47,17.50
2016,11,08,15,48,17.50
2016,11,08,15,49,17.40
2016,11,08,15,50,17.40
2016,11,08,15,51,17.40
2016,11,08,15,52,17.30
2016,11,08,15,53,17.30
2016,11,08,15,54,17.30
2016,11,08,15,55,17.30
2016,11,08,15,56,17.30
2016,11,08,15,57,17.30
2016,11,08,15,58,17.20
2016,11,08,15,59,17.20
2016,11,08,16,00,17.20
2016,11,08,16,01,17.20
2016,11,08,16,02,17.10
2016,11,08,16,03,17.10
2016,11,08,16,04,17.10
2016,11,08,16,05,17.00
2016,11,08,16,06,17.00
2016,11,08,16,07,17.00
2016,11,08,16,08,16.90
2016,11,08,16,09,16.90
2016,11,08,16,10,16.80
2016,11,08,16,11,16.80
2016,11,08,16,12,16.80
2016,11,08,16,13,16.70
2016,11,08,16,14,16.70
2016,11,08,16,15,16.70
2016,11,08,16,16,16.60
2016,11,08,16,17,16.60
2016,11,08,16,18,16.60
2016,11,08,16,19,16.50
2016,11,08,16,20,16.50
2016,11,08,16,21,16.40
2016,11,08,16,22,16.40
2016,11,08,16,23,16.40
2016,11,08,16,24,16.30
2016,11,08,16,25,16.30
2016,11,08,16,26,16.20
2016,11,08,16,27,16.20
2016,11,08,16,28,16.20
2016,11,08,16,29,16.10
2016,11,08,16,30,16.10
2016,11,08,16,31,16.00
2016,11,08,16,32,16.00
2016,11,08,16,33,15.90
2016,11,08,16,34,15.90
2016,11,08,16,35,15.80
2016,11,08,16,36,15.80
2016,11,08,16,37,15.80
2016,11,08,16,38,15.70
2016,11,08,16,39,15.70
2016,11,08,16,40,15.70
2016,11,08,16,41,15.60
2016,11,08,16,42,15.60
2016,11,08,16,43,15.50
2016,11,08,16,44,15.50
2016,11,08,16,45,15.50
2016,11,08,16,46,15.40
2016,11,08,16,47,15.40
2016,11,08,16,48,15.40
2016,11,08,16,49,15.30
2016,11,08,16,50,15.30
2016,11,08,16,51,15.30
2016,11,08,16,52,15.30
2016,11,08,16,53,15.20
2016,11,08,16,54,15.20
2016,11,08,16,55,15.20
2016,11,08,16,56,15.10
2016,11,08,16,57,15.10
2016,11,08,16,58,15.00
2016,11,08,16,59,15.00
2016,11,08,17,00,15.00
2016,11,08,17,01,15.00
2016,11,08,17,02,15.00
2016,11,08,17,03,15.00
2016,11,08,17,04,15.00
2016,11,08,17,05,15.00
2016,11,08,17,06,15.00
2016,11,08,17,07,15.00
2016,11,08,17,08,15.00
2016,11,08,17,09,15.00
2016,11,08,17,10,14.90
2016,11,08,17,11,14.90
2016,11,08,17,12,14.80
2016,11,08,17,13,14.80
2016,11,08,17,14,14.80
2016,11,08,17,15,14.80
2016,11,08,17,16,14.70
2016,11,08,17,17,14.70
2016,11,08,17,18,14.70
2016,11,08,17,19,14.70